• In Switzerland
  • List of Countries
  • For 7 days
  • Water Temperature
  • Satellite Maps
  • Weather Map
  • Weather Widgets
  • user-avatar
    Login

    Hourly Weather Isfahan

    Today, 16 October, Tuesday

    Time Temperature Precipitation Wind Pressure Humidity
    00:00 +20°C° 0 mm 1 mps 634 mmHg 28%
    01:00 +19°C° 0 mm 1 mps 634 mmHg 29%
    02:00 +19°C° 0 mm 1 mps 634 mmHg 30%
    03:00 +18°C° 0 mm 1 mps 634 mmHg 31%
    04:00 +18°C° 0 mm 1 mps 634 mmHg 32%
    05:00 +18°C° 0 mm 1 mps 634 mmHg 33%
    06:00 +18°C° 0 mm 1 mps 634 mmHg 34%
    07:00 +19°C° 0 mm 1 mps 635 mmHg 31%
    08:00 +20°C° 0 mm 1 mps 635 mmHg 29%
    09:00 +21°C° 0 mm 1 mps 636 mmHg 26%
    10:00 +22°C° 0 mm 1 mps 636 mmHg 25%
    11:00 +23°C° 0 mm 1 mps 636 mmHg 23%
    12:00 +23°C° 0 mm 1 mps 636 mmHg 22%
    13:00 +24°C° 0 mm 2 mps 636 mmHg 21%
    14:00 +24°C° 0 mm 2 mps 636 mmHg 21%
    15:00 +24°C° 0 mm 3 mps 635 mmHg 20%
    16:00 +22°C° 0 mm 3 mps 635 mmHg 23%
    17:00 +22°C° 0 mm 4 mps 635 mmHg 25%
    18:00 +21°C° 0 mm 5 mps 635 mmHg 28%
    19:00 +20°C° 0 mm 4 mps 635 mmHg 31%
    20:00 +20°C° 0 mm 3 mps 635 mmHg 35%
    21:00 +19°C° 0 mm 3 mps 635 mmHg 38%
    22:00 +18°C° 0 mm 2 mps 635 mmHg 40%
    23:00 +18°C° 0 mm 2 mps 635 mmHg 41%

    Tomorrow, 17 October, Wednesday

    Time Temperature Precipitation Wind Pressure Humidity
    00:00 +18°C° 0 mm 2 mps 635 mmHg 43%
    01:00 +18°C° 0 mm 1 mps 635 mmHg 44%
    02:00 +18°C° 0 mm 1 mps 635 mmHg 45%
    03:00 +16°C° 0 mm 1 mps 634 mmHg 46%
    04:00 +16°C° 0 mm 1 mps 634 mmHg 47%
    05:00 +16°C° 0 mm 1 mps 634 mmHg 47%
    06:00 +15°C° 0 mm 1 mps 634 mmHg 48%
    07:00 +16°C° 0 mm 1 mps 635 mmHg 44%
    08:00 +18°C° 0 mm 1 mps 635 mmHg 40%
    09:00 +18°C° 0 mm 2 mps 636 mmHg 36%
    10:00 +19°C° 0 mm 2 mps 635 mmHg 34%
    11:00 +20°C° 0 mm 2 mps 635 mmHg 31%
    12:00 +21°C° 0 mm 2 mps 635 mmHg 28%
    13:00 +23°C° 0 mm 2 mps 635 mmHg 27%
    14:00 +23°C° 0 mm 2 mps 635 mmHg 26%
    15:00 +22°C° 0 mm 3 mps 634 mmHg 26%
    16:00 +22°C° 0.1 mm 3 mps 634 mmHg 27%
    17:00 +21°C° 0.1 mm 3 mps 634 mmHg 29%
    18:00 +20°C° 0.1 mm 3 mps 634 mmHg 31%
    19:00 +20°C° 0 mm 3 mps 634 mmHg 33%
    20:00 +19°C° 0 mm 3 mps 635 mmHg 34%
    21:00 +19°C° 0 mm 2 mps 635 mmHg 36%
    22:00 +18°C° 0 mm 2 mps 634 mmHg 37%
    23:00 +18°C° 0 mm 2 mps 634 mmHg 38%

    Day after tomorrow, 18 October, Thursday

    Time Temperature Precipitation Wind Pressure Humidity
    00:00 +18°C° 0 mm 1 mps 634 mmHg 40%
    01:00 +18°C° 0 mm 1 mps 634 mmHg 41%
    02:00 +18°C° 0 mm 1 mps 633 mmHg 42%
    03:00 +16°C° 0 mm 1 mps 633 mmHg 43%
    04:00 +16°C° 0 mm 1 mps 633 mmHg 44%
    05:00 +16°C° 0 mm 1 mps 633 mmHg 45%
    06:00 +15°C° 0 mm 0 mps 633 mmHg 46%
    07:00 +15°C° 0 mm 0 mps 633 mmHg 43%
    08:00 +16°C° 0 mm 0 mps 634 mmHg 39%
    09:00 +17°C° 0 mm 0 mps 634 mmHg 36%
    10:00 +20°C° 0 mm 1 mps 634 mmHg 34%
    11:00 +21°C° 0 mm 1 mps 634 mmHg 31%
    12:00 +22°C° 0 mm 1 mps 634 mmHg 28%
    13:00 +23°C° 0 mm 1 mps 634 mmHg 27%
    14:00 +23°C° 0 mm 2 mps 634 mmHg 26%
    15:00 +24°C° 0 mm 2 mps 634 mmHg 25%
    16:00 +22°C° 0.1 mm 3 mps 634 mmHg 27%
    17:00 +22°C° 0.1 mm 3 mps 634 mmHg 29%
    18:00 +21°C° 0.1 mm 3 mps 634 mmHg 31%
    19:00 +20°C° 0 mm 3 mps 634 mmHg 33%
    20:00 +20°C° 0 mm 2 mps 634 mmHg 36%
    21:00 +19°C° 0 mm 2 mps 634 mmHg 39%
    22:00 +19°C° 0 mm 2 mps 634 mmHg 40%
    23:00 +19°C° 0 mm 1 mps 634 mmHg 42%

    19 October, Friday

    Time Temperature Precipitation Wind Pressure Humidity
    00:00 +18°C° 0 mm 1 mps 634 mmHg 44%
    01:00 +18°C° 0 mm 1 mps 634 mmHg 45%
    02:00 +18°C° 0 mm 1 mps 634 mmHg 46%
    03:00 +16°C° 0 mm 1 mps 633 mmHg 48%
    04:00 +16°C° 0 mm 1 mps 633 mmHg 49%
    05:00 +16°C° 0 mm 1 mps 634 mmHg 49%
    06:00 +14°C° 0 mm 0 mps 634 mmHg 50%
    07:00 +16°C° 0 mm 1 mps 634 mmHg 46%
    08:00 +18°C° 0 mm 1 mps 635 mmHg 42%
    09:00 +20°C° 0 mm 1 mps 635 mmHg 38%
    10:00 +21°C° 0 mm 1 mps 635 mmHg 35%
    11:00 +22°C° 0 mm 1 mps 635 mmHg 32%
    12:00 +22°C° 0 mm 1 mps 635 mmHg 29%
    13:00 +23°C° 0 mm 1 mps 635 mmHg 27%
    14:00 +23°C° 0 mm 2 mps 635 mmHg 26%
    15:00 +24°C° 0 mm 2 mps 635 mmHg 24%
    16:00 +23°C° 0 mm 2 mps 635 mmHg 25%
    17:00 +22°C° 0 mm 3 mps 635 mmHg 26%
    18:00 +21°C° 0 mm 3 mps 635 mmHg 28%
    19:00 +20°C° 0 mm 3 mps 635 mmHg 30%
    20:00 +20°C° 0 mm 2 mps 635 mmHg 32%
    21:00 +19°C° 0 mm 2 mps 635 mmHg 34%
    22:00 +19°C° 0 mm 2 mps 635 mmHg 35%
    23:00 +18°C° 0 mm 2 mps 635 mmHg 37%

    20 October, Saturday

    Time Temperature Precipitation Wind Pressure Humidity
    00:00 +18°C° 0 mm 1 mps 634 mmHg 38%
    01:00 +18°C° 0 mm 1 mps 634 mmHg 39%
    02:00 +16°C° 0 mm 1 mps 634 mmHg 40%
    03:00 +16°C° 0 mm 1 mps 634 mmHg 41%
    04:00 +16°C° 0 mm 1 mps 634 mmHg 41%
    05:00 +14°C° 0 mm 0 mps 634 mmHg 42%
    06:00 +14°C° 0 mm 0 mps 634 mmHg 43%
    07:00 +15°C° 0 mm 0 mps 635 mmHg 39%
    08:00 +17°C° 0 mm 0 mps 635 mmHg 35%
    09:00 +20°C° 0 mm 1 mps 636 mmHg 31%
    10:00 +21°C° 0 mm 1 mps 635 mmHg 29%
    11:00 +22°C° 0 mm 1 mps 635 mmHg 27%
    12:00 +23°C° 0 mm 1 mps 635 mmHg 25%
    13:00 +24°C° 0 mm 1 mps 635 mmHg 24%
    14:00 +24°C° 0 mm 1 mps 635 mmHg 23%
    15:00 +24°C° 0 mm 2 mps 635 mmHg 23%
    16:00 +24°C° 0 mm 2 mps 635 mmHg 24%
    17:00 +23°C° 0 mm 2 mps 635 mmHg 25%
    18:00 +23°C° 0 mm 2 mps 635 mmHg 26%
    19:00 +21°C° 0 mm 2 mps 635 mmHg 27%
    20:00 +21°C° 0 mm 2 mps 635 mmHg 29%
    21:00 +20°C° 0 mm 2 mps 635 mmHg 30%
    22:00 +21°C° 0 mm 1 mps 635 mmHg 32%
    23:00 +20°C° 0 mm 1 mps 635 mmHg 33%

    21 October, Sunday

    Time Temperature Precipitation Wind Pressure Humidity
    00:00 +19°C° 0 mm 1 mps 634 mmHg 35%
    01:00 +19°C° 0 mm 1 mps 634 mmHg 35%
    02:00 +18°C° 0 mm 1 mps 634 mmHg 36%
    03:00 +16°C° 0 mm 0 mps 633 mmHg 37%
    04:00 +16°C° 0 mm 0 mps 634 mmHg 38%
    05:00 +15°C° 0 mm 0 mps 634 mmHg 38%
    06:00 +15°C° 0 mm 0 mps 634 mmHg 39%
    07:00 +17°C° 0 mm 0 mps 634 mmHg 35%
    08:00 +18°C° 0 mm 0 mps 635 mmHg 32%
    09:00 +19°C° 0 mm 0 mps 635 mmHg 29%
    10:00 +20°C° 0 mm 0 mps 635 mmHg 27%
    11:00 +23°C° 0 mm 1 mps 635 mmHg 25%
    12:00 +24°C° 0 mm 1 mps 635 mmHg 24%
    13:00 +25°C° 0 mm 1 mps 635 mmHg 23%
    14:00 +25°C° 0 mm 1 mps 634 mmHg 22%
    15:00 +25°C° 0 mm 1 mps 634 mmHg 21%
    16:00 +25°C° 0 mm 1 mps 634 mmHg 22%
    17:00 +24°C° 0 mm 1 mps 635 mmHg 23%
    18:00 +23°C° 0 mm 1 mps 635 mmHg 24%
    19:00 +23°C° 0 mm 1 mps 635 mmHg 25%
    20:00 +22°C° 0 mm 1 mps 635 mmHg 26%
    21:00 +22°C° 0 mm 1 mps 635 mmHg 28%
    22:00 +21°C° 0 mm 1 mps 635 mmHg 29%
    23:00 +21°C° 0 mm 1 mps 634 mmHg 30%
    Show more